www.pogodaiklimat.ru

Погода и климат >> Архив погоды >> Россия >> Чукотка >> Остров Врангеля


АРХИВ ПОГОДЫ на Острове Врангеля

Время (UTC), дата Ветер
(напр.,м/с)
 
Видим.   Явления Облачность Т
(С)
Тd
(С)
f
(%)
Тe
(С)
Тes
(С)
Комфортность P
(гПа)
Po
(гПа)
Тmin
(С)
Tmax
(С)
R
(мм)
R24
(мм)
S
(см)
06 17.07 ЮЗ 7-10
{12}
20 км 6/0
[Ac trans Ci fib]
+4.6 +1.6 81 -1 -1 1004.3 1001.7 +5.8 0.3
09 17.07 ЮЗ 6
{12}
20 км 4/3 300 м
[Sc Ac trans]
+2.5 +0.6 87 -3 -3 1005.2 1002.6
12 17.07 ЮЗ 3
{10}
20 км 9/9 300 м
[Sc]
+2.0 +0.3 88 -2 -2 1005.9 1003.3
15 17.07 З 5
{7}
20 км 4/3 600 м
[Sc Ac trans]
+1.2 +0.2 93 -5 -5 1005.6 1003.0
18 17.07 ЮЗ 4
{7}
20 км 9/0
[Ac trans Ci fib]
+3.1 +1.3 88 -2 -0 1006.1 1003.5 +0.8
21 17.07 ЮЗ 4
{7}
20 км 6/0
[Ac trans Ci fib]
+4.1 +2.0 86 -0 +3 1005.9 1003.3
00 18.07 ЮЗ 4
{7}
20 км 9/0
[Ac trans]
+4.5 +1.9 83 0 +3 1005.9 1003.3
03 18.07 ЮЗ 5
{6}
20 км 10/0
[Ac und]
+4.2 +1.9 85 -1 0 1006.0 1003.4
06 18.07 ЮЗ 5
{8}
20 км 9/0
[Ac trans]
+4.8 +2.1 83 0 +1 1005.4 1002.8 +5.8
09 18.07 ЮЗ 6
{9}
20 км 8/0
[Ci sp]
+4.5 +1.8 83 -1 -1 1005.6 1003.0
12 18.07 ЮВ 2
{10}
20 км 9/0
[Ac trans]
+1.7 +0.2 90 -2 -2 1006.2 1003.6
15 18.07 ЮЗ 1
{3}
20 км 8/0
[Ac trans]
+0.9 -0.7 89 -1 -1 1006.6 1004.0
18 18.07 З 7
{9}
20 км 8/3 600 м
[Sc Ac trans Ci fib]
+0.9 -0.7 89 -6 -6 1007.3 1004.7 -0.2
21 18.07 ЮЗ 6
{11}
20 км 9/8 600 м
[Sc Ac trans]
+3.0 +0.2 82 -3 -2 1008.3 1005.7
00 19.07 Ю 9-14
{14}
20 км 8/5 600 м
[Sc Ac trans]
+2.8 -0.3 80 -4 -4 1009.5 1006.9
03 19.07 ЮЗ 9-12
{14}
20 км 9/5 600 м
[Sc Ac trans Ci fib]
+2.3 -0.1 84 -5 -5 1010.8 1008.2
06 19.07 ЮЗ 9-12
{13}
20 км 9/0
[Ac trans Ci fib]
+1.9 +0.2 88 -5 -5 1010.7 1008.1 +6.0
09 19.07 ЮЗ 5-10
{12}
4000 м дымка 10/0
[Ac und]
+0.6 +0.2 97 -6 -6 1010.8 1008.1
12 19.07 ЮЗ 9-11
{13}
4000 м дымка 10/0
[Ac und]
+1.1 +0.9 99 -7 -7 1010.2 1007.5
15 19.07 ЮЗ 11-14
{14}
1000 м дымка 10/10 600 м
[Sc]
+1.1 +0.8 98 -7 -7 1009.5 1006.8
18 19.07 З 6
{14}
20 км 10/10 600 м
[Sc]
+1.4 +1.1 98 -5 -5 1009.8 1007.1 +0.5
21 19.07 ЮЗ 6
{10}
20 км 10/10 600 м
[Sc]
+2.1 +0.6 90 -4 -4 1009.7 1007.1
00 20.07 ЮЗ 5
{10}
20 км 10/3 600 м
[Sc Ac und]
+3.1 +1.0 86 -2 -1 1009.3 1006.7
03 20.07 ЮЗ 4
{9}
20 км 10/3 600 м
[Sc Ac und]
+2.8 +0.7 86 -2 -1 1009.2 1006.6
06 20.07 ЮЗ 2
{6}
20 км 10/3 600 м
[Sc Ac und]
+3.1 +0.6 84 0 +1 1009.5 1006.9 +3.8
09 20.07 В 3
{3}
20 км 6/3 600 м
[Sc Ac trans]
+2.8 -0.3 80 -1 -1 1010.2 1007.6
12 20.07 СВ 3
{6}
20 км 4/0
[Ac trans]
+0.8 -0.4 92 -4 -4 1010.9 1008.2
15 20.07 ЮЗ 3
{5}
20 км 9/9 600 м
[Sc]
+0.2 -0.8 93 -5 -5 1011.3 1008.6
18 20.07 Ю 2
{5}
20 км 3/1 600 м
[Sc Ac trans]
+0.4 -0.8 92 -3 -1 1010.8 1008.1 -0.9
21 20.07 ЮЗ 6
{9}
20 км 8/1 600 м
[Sc Ac trans Ci fib]
+0.8 -0.2 93 -6 -4 1010.6 1007.9
00 21.07 ЮЗ 8-10
{10}
20 км 6/0
[Ac trans Ci fib]
+1.1 -0.2 91 -6 -5 1010.2 1007.5
03 21.07 ЮЗ 5
{10}
20 км 9/0
[Ac trans]
+1.9 -0.1 87 -4 -2 1009.2 1006.6
06 21.07 ЮЗ 3
{7}
20 км 8/3 600 м
[Sc Ac trans]
+1.8 +0.2 89 -3 -2 1008.7 1006.0 +2.2
09 21.07 ЮЗ 2
{6}
20 км 9/5 600 м
[Sc Ac trans Ci fib]
+1.3 +0.3 93 -2 -2 1008.7 1006.0
12 21.07 штиль 0
{4}
20 км 9/0
[Ac trans]
+1.7 +1.0 95 0 0 1008.5 1005.8
15 21.07 В 2
{3}
20 км 10/0
[Ac und]
+2.6 +1.5 92 -1 -1 1008.3 1005.7
18 21.07 СВ 3
{5}
20 км 10/0
[Ac und]
+5.2 +2.9 85 +2 +2 1007.7 1005.1 +1.0
21 21.07 В 7-10
{10}
20 км 10/0
[As op]
+5.9 +4.1 88 +1 +1 1007.2 1004.6
00 22.07 СВ 7-11
{12}
10 км слаб. дождь 10/3 300 м
[Frnb As op]
+6.2 +4.7 90 +1 +1 1006.6 1004.0
03 22.07 СВ 12-15
{15}
10 км слаб. дождь 10/0
[As op]
+5.7 +4.0 89 -1 -1 1004.5 1001.9
06 22.07 СВ 13-16
{18}
10 км слаб. дождь 10/0 300 м
[As op]
+4.8 +4.1 95 -3 -3 1001.7 999.1 +6.4 3
09 22.07 СВ 9-14
{19}
2000 м сильн. дождь 10/0 300 м
[As op]
+6.0 +5.4 96 0 0 998.9 996.4
12 22.07 В 3
{15}
10 км слаб. дождь 10/0 300 м
[As op]
+5.3 +5.0 98 +2 +2 998.4 995.9
15 22.07 В 2
{6}
20 км {дождь} 10/8 600 м
[Sc Ac und]
+4.7 +4.1 96 +2 +2 998.9 996.3
18 22.07 штиль 0
{6}
4000 м дымка {дождь} 10/10 100 м
[Sc]
+4.0 +3.5 97 +3 +3 1000.0 997.4 +3.9 19
21 22.07 Ю 2
{3}
4000 м дымка 10/6 100 м
[Sc Ac und]
+2.9 +2.6 98 -0 0 1002.8 1000.2 +2.9
00 23.07 ЮЗ 7
{9}
20 км в посл. час туман 10/0
[Ac und]
+2.9 +2.5 97 -4 -3 1005.0 1002.4
03 23.07 ЮЗ 6
{9}
20 км 10/0
[Ac und]
+3.5 +1.7 88 -2 -1 1006.6 1004.0
06 23.07 ЮЗ 5
{8}
20 км 8/0
[Ac trans]
+3.2 +1.8 91 -2 -2 1008.5 1005.9 +4.1
09 23.07 З 2
{9}
20 км 8/0
[Ac trans Ci fib]
+1.8 +0.9 94 -2 -2 1010.1 1007.5
12 23.07 З 1
{4}
20 км 3/0
[Ac trans]
+1.5 +0.3 92 -0 -0 1011.0 1008.3
15 23.07 СВ 1
{5}
20 км 9/4 600 м
[Sc Ac trans]
+1.3 +0.6 95 -1 -1 1011.0 1008.3
18 23.07 ЮВ 2
{4}
20 км 10/0
[Ac und]
+2.5 +1.3 92 -1 -0 1010.9 1008.3 +0.3
21 23.07 Ю 1
{3}
20 км 10/0
[Ac und]
+3.4 +1.2 85 +2 +4 1010.2 1007.6
00 24.07 ЮВ 2
{2}
20 км 10/0
[As op]
+4.0 +1.7 85 +1 +3 1009.3 1006.7
03 24.07 Ю 1
{2}
20 км 10/0
[As op]
+3.8 +2.0 88 +2 +4 1008.5 1005.9

 

Местоположение метеостанции Остров Врангеля (Чукотка, Россия): широта 70.98 долгота -178.00 высота над уровнем моря 21 м.

В архиве по умолчанию представлена погода на Острове Врангеля за последнюю неделю. Архивные данные за месяц целиком и за предыдущие месяцы, начиная с января 2011 года, Вы можете получить, выбрав интересующий диапазон дат из раскрывающегося списка и нажав кнопку "Ввод!".


*Определитесь, кто Вы:
робот инопланетянин человек

Внимание! Время в таблицах - всемирное. Для получения местного времени необходимо прибавить поправку, которая равна 12 ч.

Смотрите также архив погоды в соседних городах и на ближайших метеорологических станциях:

Погода на Мысе Шмидта (Чукотка, Россия) (238 км)
Погода на Мысе Биллингс (Чукотка, Россия) (265 км)
Погода в Паляваам-Глубокой (Чукотка, Россия) (364 км)
Погода на Мысе Ванкарем (Чукотка, Россия) (369 км)
Погода в Комсомольской (Чукотка, Россия) (404 км)
Погода в Майской (Чукотка, Россия) (423 км)
Погода в Валькаркае (Чукотка, Россия) (423 км)
Погода на 21 км (Чукотка, Россия) (444 км)
Погода в Певеке (Чукотка, Россия) (463 км)
Погода в Чауне (Чукотка, Россия) (489 км)

Пояснения к столбцам:

Ветер - указаны скорость ветра в м/с - средняя за 10 мин, порывы в срок и между сроками (в фигурных скобках) и направление, откуда дует ветер: С - северный, СВ - северо-восточный, В - восточный, ЮВ - юго-восточный, Ю - южный, ЮЗ - юго-западный, З - западный, СЗ - северо-западный.
Видимость - горизонтальная дальность видимости в метрах или километрах. При видимости от 1 до 10 км при отсутствии осадков обычно наблюдается дымка, при ухудшении видимости до 1 км и менее - туман. В сухую погоду видимость может ухудшаться дымом, пылью или мглою.
Явления - указаны атмосферные явления, наблюдавшиеся в срок или в последний час перед сроком; фигурными скобками обозначены явления, наблюдавшиеся между сроками (за 1-3 часа до срока); квадратными скобками обозначены град или гололедные отложения с указанием их диаметра в мм.
Облачность - указаны через наклонную черту общая и нижняя облачность в баллах и высота нижней границы облаков в метрах; квадратными скобками обозначены формы облаков: Ci - перистые, Cs - перисто-слоистые, Cc - перисто-кучевые, Ac - высококучевые, As - высокослоистые, Sc - слоисто-кучевые, Ns - слоисто-дождевые, Cu - кучевые, Cb - кучево-дождевые. Подробнее классификацию облаков см. в Атласе облаков (PDF).
T - Температура воздуха - температура, измеренная на высоте 2 м над землей.
Td - Температура точки росы - температура, при понижении до которой содержащийся в воздухе водяной пар достигнет насыщения.
f - Относительная влажность воздуха - влажноcть воздуха, измеренная на высоте 2 м над землей.
Te - Эффективная температура - температура, которую ощущает одетый по сезону человек в тени. Характеристика душности погоды. При расчете учитывается влияние влажности воздуха и скорости ветра на теплоощущения человека.
Tes - Эффективная температура на солнце - температура, которую ощущает человек, с поправкой на солнечный нагрев. Характеристика знойности погоды. Зависит от высоты солнца над горизонтом, облачности и скорости ветра. Ночью, в пасмурную погоду, а также при ветре 12 м/с и более поправка равна нулю.
P - Атмосферное давление - приведенное к уровню моря атмосферное давление.
Po - Атмосферное давление - измеренное на уровне метеостанции атмосферное давление.
Tmin - Минимальная температура - минимум температуры воздуха на высоте 2 м над землей.
Tmax - Максимальная температура - максимум температуры воздуха на высоте 2 м над землей.
R - Количество осадков - Количество выпавших осадков за период времени, мм. При наведении курсора мыши на число - период времени, за который выпало указанное количество осадков.
R24 - Количество осадков - Количество выпавших осадков за 24 часа, мм.
S - Снежный покров - Высота снежного покрова, см. При наведении курсора мыши на число - состояние снежного покрова и степень покрытия местности в баллах.